1998-067QD

Last updated on Wed Jun 19 2019 00:02:09 GMT+0000 (Coordinated Universal Time)

1 44306U 98067QD 19168.87552796 .00002613 00000-0 51260-4 0 9991 2 44306 51.6419 357.8623 0007995 52.0920 308.0791 15.51422022 2966
UTC large
Height (km)
Speed (km/s)
/
Latitude / Longitude
Inclination (degrees)
Orbital Period (minutes)
Azimuth
Elevation
Range (km)
Doppler Factor

Next 0 passes for location: London (51.5072 / 0.1276)

Sorry there are no passes over London.